Tracking 19574 objects as of 16-Feb-2019
HD Live streaming from Space Station
objects crossing your sky now

COSMOS 1823 DEB

Track COSMOS 1823 DEB now!
10-day predictions


NORAD ID: 18733
Int'l Code: 1987-020L
Perigee: 1,001.4 km
Apogee: 1,086.3 km
Inclination: 73.4 °
Period: 105.9 minutes
Semi major axis: 7414 km
RCS: 0.047 m2 (small)
Launch date: February 20, 1987
Source: Commonwealth of Independent States (former USSR) (CIS)
Launch site: PLESETSK MISSILE AND SPACE COMPLEX (PKMTR)

Note: This is SATELLITE DEBRIS
aabbcc
Your satellite tracking list
Your tracking list is empty




NASA's NSSDC Master Catalog

Two Line Element Set (TLE):
1 18733U 87020L   19046.82806556 +.00004269 +00000-0 +57194-2 0  9998
2 18733 073.4438 205.2384 0057235 358.4685 123.2973 13.59715413481186
Source of the keplerian elements: AFSPC